Location: Strawberry
(45.6646°N, 111.9596°W)
Time: 14:33:36
(UTC+00:00)

Vanguard 1 Rocket - All Passes

Search period start: 03 October 2022 00:00
Search period end: 13 October 2022 00:00
Orbit: 651 x 4225 km, 34.3° (Epoch: 02 October)

Date Brightness Start Highest point End Pass type
(mag) Time Alt. Az. Time Alt. Az. Time Alt. Az.
03 Oct - 00:15:45 10° S 00:31:37 23° SE 00:43:24 10° ESE daylight
03 Oct - 02:41:00 10° SW 02:59:59 41° SSE 03:10:57 10° E visible
03 Oct - 05:11:54 10° WSW 05:27:05 47° S 05:35:07 10° ESE visible
03 Oct - 07:43:26 10° W 07:51:57 27° SSW 07:57:19 10° SSE visible
03 Oct - 23:07:11 10° SSE 23:18:26 15° SE 23:28:00 10° ESE daylight
04 Oct - 01:27:17 10° SSW 01:46:55 35° SSE 01:59:27 10° E visible
04 Oct - 03:56:50 10° WSW 04:14:57 49° S 04:24:39 10° ESE visible
04 Oct - 06:28:45 10° W 06:41:00 39° SSW 06:47:48 10° SE visible
04 Oct - 09:01:39 10° WSW 09:04:31 12° SW 09:06:56 10° SSW night (unlit)
05 Oct - 00:14:54 10° SSW 00:33:37 28° SSE 00:47:03 10° E daylight
05 Oct - 02:41:57 10° SW 03:02:15 46° SSE 03:13:46 10° E visible
05 Oct - 05:13:41 10° WSW 05:29:28 48° S 05:37:47 10° ESE visible
05 Oct - 07:45:51 10° W 07:54:07 24° SW 07:59:28 10° SSE visible
05 Oct - 23:04:31 10° S 23:20:15 21° SE 23:33:05 10° E daylight
06 Oct - 01:27:45 10° SW 01:49:03 41° SSE 02:02:23 10° E visible
06 Oct - 03:58:20 10° WSW 04:17:17 52° S 04:27:21 10° ESE visible
06 Oct - 06:30:50 10° W 06:43:16 37° SSW 06:50:15 10° SE visible
06 Oct - 21:58:36 10° SSE 22:07:06 13° SE 22:14:57 10° ESE daylight
07 Oct - 00:14:43 10° SSW 00:35:33 34° SSE 00:50:16 10° E daylight
07 Oct - 02:43:08 10° WSW 03:04:29 51° S 03:16:31 10° E visible
07 Oct - 05:15:32 10° W 05:31:46 47° SSW 05:40:22 10° SE visible
07 Oct - 07:48:27 10° W 07:56:09 21° SW 08:01:23 10° S visible
07 Oct - 23:03:19 10° S 23:22:00 26° SE 23:36:58 10° E daylight
08 Oct - 01:28:33 10° SW 01:51:07 47° SSE 02:05:12 10° E visible
08 Oct - 03:59:58 10° WSW 04:19:34 53° S 04:29:59 10° ESE visible
08 Oct - 06:32:57 10° W 06:45:24 33° SSW 06:52:34 10° SSE visible
08 Oct - 21:54:33 10° SSE 22:08:41 18° SE 22:21:21 10° E daylight
09 Oct - 00:15:02 10° SSW 00:37:26 40° SSE 00:53:13 10° E daylight
09 Oct - 02:44:30 10° WSW 03:06:40 54° S 03:19:11 10° ESE visible
09 Oct - 05:17:24 10° W 05:33:59 45° SSW 05:42:51 10° SE visible
09 Oct - 07:51:19 10° W 07:58:03 17° SW 08:02:56 10° S visible
09 Oct - 23:02:58 10° SSW 23:23:40 32° SE 23:40:17 10° E daylight
10 Oct - 01:29:38 10° SW 01:53:10 51° SSE 02:07:53 10° E visible
10 Oct - 04:01:40 10° WSW 04:21:47 53° S 04:32:34 10° ESE visible
10 Oct - 06:35:10 10° W 06:47:24 30° SW 06:54:43 10° SSE visible
10 Oct - 21:52:51 10° S 22:10:09 23° SE 22:25:43 10° E daylight
11 Oct - 00:15:45 10° SW 00:39:17 46° SSE 00:55:58 10° E daylight
11 Oct - 02:46:02 10° WSW 03:08:49 57° S 03:21:48 10° ESE visible
11 Oct - 05:19:20 10° W 05:36:05 43° SSW 05:45:15 10° SE visible
11 Oct - 07:54:44 10° WSW 07:59:50 14° SW 08:03:50 10° SSW visible
11 Oct - 20:46:33 10° SSE 20:57:07 14° SE 21:07:27 10° ESE daylight
11 Oct - 23:03:11 10° SSW 23:25:18 38° SSE 23:43:14 10° E daylight
12 Oct - 01:30:56 10° WSW 01:55:12 55° S 02:10:30 10° E visible
12 Oct - 04:03:26 10° W 04:23:56 52° SSW 04:35:06 10° ESE visible
12 Oct - 06:37:30 10° W 06:49:17 26° SW 06:56:38 10° S visible
12 Oct - 21:52:15 10° S 22:11:34 29° SE 22:29:14 10° E daylight
